CZ-3B R/B (49506 NORAD) Tracking and Keplerian Element Data

This shows tracking and keplerian element data for the satellite.

Feedback or suggestion? Click here.




ElementValue
Catalog49506
NameCZ-3B R/B
Epoch Orbit71
Epoch Day359.91404992
Epoch Year2021
RAAN301.507
Inclination26.9377
Eccentricity0.7206925
Argument of Perigee198.8052
Mean Anonmoly106.5182
Mean Motion2.43855001
Decay Rate0.00162529
L11 49506U 21114B 21359.91404992 .00162529 10095-6 49632-3 0 9994
L22 49506 26.9377 301.5070 7206925 198.8052 106.5182 2.43855001 719

Live tracking and technical data element details for CZ-3B R/B (NORAD 49506). CZ-3B R/B can be tracked NOW for your location showing map with azimuth and elevation plus other details from your city location.

Track the satellite on the map from your city or location and see movement details for azimuth, elevation, latitude, longitude, range, height, and movement on the map or in text.







IsCatalogInMostPopularTable: catalog: 49506, numindb: 3
Update: records affected: 1



GetName: 49506 CZ-3B R/B

Hit Count: updated at: Thu, 20 Jan 2022 17:35:22 GMT